Location: Fort Wayne
(41.1310°N, 85.1290°W)
Time: 02:44:51
(UTC-05:00)

Gbstr 26 Del rocket - Visible Passes

Search period start: 24 February 2018 00:00
Search period end: 06 March 2018 00:00
Orbit: 494 x 1265 km, 51.8° (Epoch: 23 February)

Date Brightness Start Highest point End Pass type
(mag) Time Alt. Az. Time Alt. Az. Time Alt. Az.
24 Feb 2.5 19:42:10 10° SW 19:45:52 83° SE 19:47:47 28° ENE visible
24 Feb 5.9 21:29:57 10° WNW 21:30:23 12° WNW 21:30:23 12° WNW visible
25 Feb 2.7 19:37:43 10° WSW 19:41:27 75° NW 19:43:57 21° NE visible
25 Feb 5.8 21:25:47 10° WNW 21:26:33 14° WNW 21:26:33 14° WNW visible
26 Feb 3.1 19:33:22 10° WSW 19:37:02 58° NNW 19:40:03 15° NE visible
26 Feb 5.6 21:21:39 10° WNW 21:22:38 15° NW 21:22:38 15° NW visible
27 Feb 3.5 19:29:04 10° WSW 19:32:39 45° NNW 19:36:04 12° NE visible
27 Feb 5.5 21:17:29 10° NW 21:18:39 15° NW 21:18:39 15° NW visible
28 Feb 3.9 19:24:48 10° W 19:28:17 37° NNW 19:31:56 10° NE visible
28 Feb 5.4 21:13:18 10° NW 21:14:36 15° NNW 21:14:36 15° NNW visible
01 Mar 4.1 19:20:36 10° W 19:23:57 31° NNW 19:27:26 10° NE visible
01 Mar 5.3 21:09:04 10° NW 21:10:30 16° NNW 21:10:30 16° NNW visible
02 Mar 4.4 19:16:25 10° W 19:19:37 26° NNW 19:22:56 10° NE visible
02 Mar 5.3 21:04:48 10° NW 21:06:22 16° NNW 21:06:22 16° NNW visible
03 Mar 4.5 19:12:16 10° WNW 19:15:19 23° NNW 19:18:27 10° NE visible
03 Mar 5.1 21:00:29 10° NW 21:02:13 17° NNW 21:02:13 17° NNW visible
04 Mar 4.7 19:08:07 10° WNW 19:11:01 21° NNW 19:14:00 10° NE visible
04 Mar 5.0 20:56:08 10° NW 20:58:02 18° N 20:58:02 18° N visible
05 Mar 4.7 19:03:59 10° WNW 19:06:44 19° N 19:09:33 10° NE visible
05 Mar 4.9 20:51:44 10° NW 20:53:50 19° N 20:53:50 19° N visible
